Stations météo

Publicité
Bezier-Vias, France (7638): Température de l'air & dewpoint: 20.03.2017 09:00:00 - 26.03.2017 09:00:00 (CEST)Bezier-Vias, France (7638): Vitesse du vent & gusts: 20.03.2017 09:00:00 - 26.03.2017 09:00:00 (CEST)Bezier-Vias, France (7638): Direction du vent: 20.03.2017 09:00:00 - 26.03.2017 09:00:00 (CEST)Bezier-Vias, France (7638): reduced air pressure: 20.03.2017 09:00:00 - 26.03.2017 09:00:00 (CEST)Bezier-Vias, France (7638): visibility: 20.03.2017 09:00:00 - 26.03.2017 09:00:00 (CEST)Bezier-Vias, France (7638): Quantités de précipitations: 20.03.2017 09:00:00 - 26.03.2017 09:00:00 (CEST)
Date & Time tt [°C] td [°C] ff [km/h] ff [knt] fx [km/h] fx [knt] dd ppp [hPa] vv [km] rr [mm]
26.03.2017 09:00:00 9,1 7,2 21 11 29 16 NE 1018,5 42 0,0
26.03.2017 08:00:00 7,7 6,6 16 8 30 16 NNE 1018,0 26 0,0
26.03.2017 07:00:00 7,5 6,4 18 10 26 14 NNE 1017,4 32 0,0
26.03.2017 06:00:00 7,0 5,8 14 7 20 11 NNE 1017,2 36 0,0
26.03.2017 05:00:00 7,9 6,2 16 9 22 12 NNE 1017,3 39 0,0
26.03.2017 04:00:00 11,2 5,9 9 5 23 12 S 1017,4 47 0,0
26.03.2017 03:00:00 11,6 6,3 14 8 28 15 SSE 1017,6 53 0,0
26.03.2017 02:00:00 12,1 5,9 14 8 34 19 SSE 1017,7 53 0,0
26.03.2017 01:00:00 12,2 7,5 18 10 31 17 SSE 1017,6 44 0,0
26.03.2017 00:00:00 12,2 7,9 18 10 40 22 SE 1017,7 41 0,0
25.03.2017 23:00:00 12,4 7,7 22 12 40 22 SSE 1017,6 44 0,0
25.03.2017 22:00:00 12,5 8,0 18 10 38 21 SE 1016,9 38 0,0
25.03.2017 21:00:00 12,9 8,0 22 12 38 20 SE 1016,1 42 0,0
25.03.2017 20:00:00 13,3 9,2 22 12 40 22 SE 1015,9 20 0,0
25.03.2017 19:00:00 14,1 8,7 22 12 45 25 SE 1016,0 40 0,0
25.03.2017 18:00:00 14,7 9,7 28 15 48 26 ESE 1015,9 44 0,0
25.03.2017 17:00:00 14,6 9,2 31 17 58 31 ESE 1016,2 38 0,0
25.03.2017 16:00:00 14,5 8,4 36 19 59 32 SE 1015,9 42 0,0
25.03.2017 15:00:00 13,8 8,0 35 19 62 34 SSE 1016,2 46 0,0
25.03.2017 14:00:00 13,2 7,8 34 18 71 38 SSE 1015,9 20 0,0
25.03.2017 13:00:00 12,7 6,9 40 22 72 39 SSE 1014,9 19 0,0
25.03.2017 12:00:00 11,8 5,2 38 21 73 39 S 1013,8 20 0,0
25.03.2017 11:00:00 11,3 6,6 43 23 78 42 SE 1012,3 20 0,0
25.03.2017 10:00:00 12,0 9,6 28 15 69 38 SE 1012,0 19 1,2
25.03.2017 09:00:00 12,4 11,1 51 28 87 47 E 1011,3 2,9 7,2
25.03.2017 08:00:00 12,8 11,2 42 23 68 37 ESE 1011,8 3,3 4,3
25.03.2017 07:00:00 12,7 10,8 35 19 50 27 E 1011,8 2,6 2,4
25.03.2017 06:00:00 12,7 9,0 27 14 46 25 ENE 1011,7 35 0,0
25.03.2017 05:00:00 13,2 9,4 32 17 50 27 ENE 1012,0 31 0,0
25.03.2017 04:00:00 12,8 9,6 29 16 42 23 ENE 1013,3 31 0,0
25.03.2017 03:00:00 11,1 9,4 21 11 34 19 ENE 1014,6 20 0,0
25.03.2017 02:00:00 7,6 6,8 8 5 15 8 NW 1016,3 14 0,0
25.03.2017 01:00:00 7,9 7,1 7 4 25 13 WNW 1016,7 26 0,0
25.03.2017 00:00:00 7,8 7,0 18 10 31 17 W 1017,1 45 0,0
24.03.2017 23:00:00 7,8 7,0 23 12 33 18 W 1016,7 38 0,0
24.03.2017 22:00:00 8,4 7,6 20 11 28 15 W 1016,7 20 1,4
24.03.2017 21:00:00 8,9 8,1 14 7 23 12 WNW 1016,3 7 3,4
24.03.2017 20:00:00 9,7 8,6 12 6 31 17 WNW 1016,2 6 2,2
24.03.2017 19:00:00 13,3 11,7 29 15 61 33 ESE 1015,3 12 0,4
24.03.2017 18:00:00 11,6 10,8 4 2 21 11 NE 1015,1 6 0,6
24.03.2017 17:00:00 11,5 10,6 10 5 21 11 NNE 1015,5 18 2,2
24.03.2017 16:00:00 10,6 9,2 14 8 22 12 NNW 1015,8 38 0,4
24.03.2017 15:00:00 10,4 9,2 10 5 16 9 N 1016,6 3,7 1,7
24.03.2017 14:00:00 10,8 9,4 6 3 18 10 NW 1016,9 6 2,0
24.03.2017 13:00:00 11,2 9,5 8 4 21 11 S 1016,7 8 1,6
24.03.2017 12:00:00 11,9 10,6 5 3 11 6 NNE 1016,7 9 1,4
24.03.2017 11:00:00 11,8 10,2 5 3 17 9 ESE 1016,7 10 0,2
24.03.2017 10:00:00 11,4 10,1 9 5 13 7 NE 1016,1 35 0,0
24.03.2017 09:00:00 10,8 9,1 8 4 13 7 ENE 1015,9 50 0,0
24.03.2017 08:00:00 10,4 8,7 8 4 19 10 ENE 1015,5 56 0,0
24.03.2017 07:00:00 10,6 9,5 10 5 15 8 ENE 1015,0 17 0,2
24.03.2017 06:00:00 10,9 9,2 7 4 19 10 ENE 1014,5 60 0,0
24.03.2017 05:00:00 10,6 9,0 10 5 13 7 NNE 1014,0 52 0,0
24.03.2017 04:00:00 10,5 8,8 11 6 15 8 NE 1014,6 44 0,0
24.03.2017 03:00:00 9,9 8,5 6 3 16 9 NE 1014,8 38 0,0
24.03.2017 02:00:00 8,6 7,4 8 5 10 5 NE 1014,5 38 0,0
24.03.2017 01:00:00 8,2 7,0 5 3 12 7 NNE 1014,5 44 0,0
24.03.2017 00:00:00 8,2 6,8 7 4 13 7 N 1014,2 60 0,0
23.03.2017 23:00:00 8,7 6,8 5 3 13 7 NE 1013,3 55 -
23.03.2017 22:00:00 9,2 7,1 9 5 20 11 N 1012,7 60 0,0
23.03.2017 21:00:00 9,9 7,7 16 8 22 12 N 1012,1 60 0,0
23.03.2017 20:00:00 11,3 8,3 12 6 22 12 NE 1011,6 60 0,0
23.03.2017 19:00:00 12,5 8,6 9 5 13 7 N 1010,7 60 0,0
23.03.2017 18:00:00 13,2 8,3 5 3 15 8 N 1009,7 55 0,0
23.03.2017 17:00:00 10,7 9,1 12 7 26 14 NNW 1009,3 59 1,2
23.03.2017 16:00:00 10,8 7,7 17 9 29 16 W 1009,3 60 0,4
23.03.2017 15:00:00 8,7 6,8 11 6 29 16 WSW 1009,6 17 3,2
23.03.2017 14:00:00 9,3 5,7 17 9 32 18 W 1009,4 60 0,0
23.03.2017 13:00:00 10,1 6,4 18 10 32 17 W 1009,4 49 0,2
23.03.2017 12:00:00 9,3 6,6 17 9 27 15 W 1009,6 17 0,2
23.03.2017 11:00:00 10,0 7,8 11 6 18 10 W 1009,0 48 0,0
23.03.2017 10:00:00 9,9 5,5 7 4 22 12 W 1008,7 60 0,0
23.03.2017 09:00:00 8,7 5,1 10 5 24 13 W 1008,6 60 0,0
23.03.2017 08:00:00 8,1 5,2 13 7 21 11 W 1008,3 60 0,0
23.03.2017 07:00:00 8,0 5,5 8 5 21 12 NW 1007,0 60 0,0
23.03.2017 06:00:00 7,4 5,0 4 2 17 9 ESE 1007,1 60 0,0
23.03.2017 05:00:00 7,9 5,7 10 5 26 14 W 1007,8 60 0,0
23.03.2017 04:00:00 11,2 8,6 20 11 43 23 WSW 1008,0 14 0,0
23.03.2017 03:00:00 13,2 10,9 26 14 47 25 S 1007,8 17 0,0
23.03.2017 02:00:00 12,8 10,9 10 5 19 10 SSE 1008,0 17 0,0
23.03.2017 01:00:00 10,4 8,8 11 6 19 10 SE 1008,3 32 0,0
23.03.2017 00:00:00 9,7 8,6 10 5 16 9 ENE 1008,5 9 0,0
22.03.2017 23:00:00 10,6 9,5 9 5 16 9 ENE 1008,7 9 0,0
22.03.2017 22:00:00 11,6 10,2 13 7 20 11 ENE 1008,5 9 0,0
22.03.2017 21:00:00 12,3 10,2 15 8 27 15 ENE 1008,4 20 0,0
22.03.2017 20:00:00 12,8 9,2 18 10 30 16 ENE 1008,7 60 0,0
22.03.2017 19:00:00 13,7 8,5 19 11 26 14 E 1009,2 60 0,0
22.03.2017 18:00:00 13,6 7,6 13 7 20 11 E 1009,7 60 0,0
22.03.2017 17:00:00 13,0 5,4 11 6 21 11 SE 1010,2 60 0,0
22.03.2017 16:00:00 12,6 3,8 11 6 19 10 SE 1010,7 58 0,0
22.03.2017 15:00:00 12,9 4,1 14 7 29 16 SE 1011,2 60 0,0
22.03.2017 14:00:00 14,5 4,2 18 10 31 17 SSE 1011,6 60 0,0
22.03.2017 13:00:00 14,7 3,8 15 8 24 13 SE 1012,3 60 0,0
22.03.2017 12:00:00 13,5 2,4 9 5 18 10 E 1012,8 58 0,0
22.03.2017 11:00:00 12,2 2,6 11 6 22 12 NW 1013,1 60 0,0
22.03.2017 10:00:00 10,7 3,2 12 7 25 14 NW 1013,0 60 0,0
22.03.2017 09:00:00 8,9 3,7 15 8 22 12 WNW 1013,2 60 0,0
22.03.2017 08:00:00 7,5 5,3 6 4 17 9 W 1013,5 60 0,0
22.03.2017 07:00:00 7,6 5,2 7 4 17 9 WNW 1013,6 60 0,0
22.03.2017 06:00:00 7,9 5,0 7 4 21 11 W 1013,8 60 0,0
22.03.2017 05:00:00 8,6 5,2 13 7 23 12 W 1013,9 60 0,0
22.03.2017 04:00:00 9,4 5,2 16 9 26 14 WNW 1014,1 60 0,0
22.03.2017 03:00:00 9,4 5,6 11 6 28 15 WNW 1014,6 60 0,0
22.03.2017 02:00:00 9,3 5,8 22 12 33 18 W 1014,8 60 0,0
22.03.2017 01:00:00 10,3 4,9 18 10 43 23 W 1014,6 60 0,0
22.03.2017 00:00:00 11,0 5,7 29 15 45 25 W 1014,3 60 0,0
21.03.2017 23:00:00 12,8 7,2 22 12 33 18 W 1014,4 60 0,0
21.03.2017 22:00:00 13,3 6,6 21 11 37 20 WNW 1014,3 60 0,0
21.03.2017 21:00:00 13,4 6,0 23 13 35 19 WNW 1013,7 60 0,0
21.03.2017 20:00:00 13,5 5,4 18 10 32 17 WNW 1013,5 60 0,0
21.03.2017 19:00:00 13,9 4,7 24 13 40 22 NW 1013,0 60 0,0
21.03.2017 18:00:00 15,0 5,2 29 16 42 23 WNW 1012,9 58 0,0
21.03.2017 17:00:00 15,3 4,9 28 15 41 22 WNW 1012,7 60 0,0
21.03.2017 16:00:00 16,1 6,0 29 16 44 24 WNW 1012,7 60 0,0
21.03.2017 15:00:00 16,0 6,4 31 17 44 24 W 1013,0 60 0,0
21.03.2017 14:00:00 17,3 6,5 26 14 40 22 W 1013,5 60 0,0
21.03.2017 13:00:00 16,2 6,6 17 9 32 17 W 1014,0 56 0,0
21.03.2017 12:00:00 15,5 6,8 13 7 28 15 W 1014,4 60 0,0
21.03.2017 11:00:00 14,7 6,3 18 10 30 16 W 1014,7 60 0,0
21.03.2017 10:00:00 13,0 6,8 18 10 26 14 W 1014,7 60 0,0
21.03.2017 09:00:00 8,9 6,9 11 6 15 8 WNW 1014,8 60 0,0
21.03.2017 08:00:00 6,0 4,0 11 6 17 9 W 1014,6 60 0,0
21.03.2017 07:00:00 6,5 4,5 13 7 17 9 WNW 1014,6 60 0,0
21.03.2017 06:00:00 6,8 4,6 11 6 16 9 W 1014,7 55 0,0
21.03.2017 05:00:00 7,6 5,2 9 5 14 8 NW 1014,2 60 0,0
21.03.2017 04:00:00 8,6 5,7 11 6 18 10 NW 1014,5 50 0,0
21.03.2017 03:00:00 10,0 6,7 14 8 28 15 NW 1014,4 45 0,0
21.03.2017 02:00:00 11,1 7,2 16 9 23 12 NW 1014,7 46 0,0
21.03.2017 01:00:00 11,8 7,3 17 9 33 18 WNW 1014,7 45 0,0
21.03.2017 00:00:00 12,4 7,7 15 8 41 22 W 1014,7 44 0,0
20.03.2017 23:00:00 13,3 8,1 27 15 42 23 W 1014,3 43 0,0
20.03.2017 22:00:00 13,6 8,2 25 14 41 22 W 1013,9 46 0,0
20.03.2017 21:00:00 14,6 8,3 22 12 42 23 W 1013,3 50 0,0
20.03.2017 20:00:00 16,2 8,7 19 10 40 22 WSW 1013,0 60 0,0
20.03.2017 19:00:00 18,3 9,1 24 13 38 21 W 1012,8 60 0,0
20.03.2017 18:00:00 20,1 9,6 21 11 32 17 W 1012,7 60 0,0
20.03.2017 17:00:00 20,8 10,6 20 11 31 17 W 1012,6 60 0,0
20.03.2017 16:00:00 20,4 9,9 19 10 30 16 WSW 1012,9 60 0,0
20.03.2017 15:00:00 20,0 9,8 13 7 25 13 WSW 1013,5 60 0,0
20.03.2017 14:00:00 19,0 9,5 10 6 22 12 W 1014,2 60 0,0
20.03.2017 13:00:00 17,4 9,0 12 7 22 12 WNW 1014,9 19 0,0
20.03.2017 12:00:00 15,9 9,1 9 5 19 10 W 1015,4 50 0,0
20.03.2017 11:00:00 14,3 9,1 14 7 24 13 W 1015,5 50 0,0
20.03.2017 10:00:00 13,0 8,5 16 9 24 13 W 1015,4 52 0,0
20.03.2017 09:00:00 - - - - - - - - - -

tt = Température de l'air
td = dewpoint
ff = Vitesse du vent
fx = gusts
dd = Direction du vent
ppp = reduced air pressure
vv = visibility
rr = Quantités de précipitations

stations d'obs. à proximité